Location: Hilton Head Island
(32.2163°N, 80.7526°W)
Time: 04:18:03
(UTC-05:00)

Vanguard 2 - Visible Passes

Search period start: 16 February 2026 00:00
Search period end: 26 February 2026 00:00
Orbit: 553 x 2897 km, 32.9° (Epoch: 14 February)

Date Brightness Start Highest point End Pass type
(mag) Time Alt. Az. Time Alt. Az. Time Alt. Az.
16 Feb 9.0 05:07:51 21° SSW 05:10:31 29° SSE 05:14:37 10° E visible
17 Feb 8.6 05:19:27 23° SSW 05:22:33 39° SSE 05:26:51 10° E visible
18 Feb 10.5 03:30:00 12° ESE 03:30:00 12° ESE 03:30:38 10° ESE visible
18 Feb 8.1 05:30:58 23° SW 05:34:33 52° SSE 05:38:59 10° E visible
19 Feb 10.1 03:41:26 19° ESE 03:41:26 19° ESE 03:43:18 10° E visible
19 Feb 7.8 05:42:24 21° WSW 05:46:34 66° SSE 05:51:02 10° E visible
20 Feb 9.7 03:52:48 27° ESE 03:52:48 27° ESE 03:55:39 10° E visible
20 Feb 7.6 05:53:45 18° WSW 05:58:34 79° SSE 06:03:03 10° E visible
21 Feb 9.2 04:04:07 38° ESE 04:04:07 38° ESE 04:07:52 10° E visible
21 Feb 7.5 06:05:03 15° W 06:10:35 89° S 06:15:02 10° E visible
22 Feb 8.7 04:15:22 52° SE 04:15:22 52° SE 04:19:57 10° E visible
22 Feb 7.5 06:16:18 11° W 06:22:37 85° N 06:27:03 10° E visible
23 Feb 8.3 04:26:34 69° SSE 04:26:34 69° SSE 04:31:59 10° E visible
23 Feb 7.5 06:28:08 10° W 06:34:40 83° N 06:39:03 10° E visible
24 Feb 8.1 04:37:44 74° SW 04:38:20 80° SSE 04:43:59 10° E visible
25 Feb 10.7 02:47:56 14° E 02:47:56 14° E 02:48:39 10° E visible
25 Feb 8.1 04:48:51 61° WSW 04:50:22 88° S 04:55:58 10° E visible
